Time,TemperatureF,DewpointF,PressureIn,WindDirection,WindDirectionDegrees,WindSpeedMPH,WindSpeedGustMPH,Humidity,HourlyPrecipIn,Conditions,Clouds,dailyrainin,SolarRadiationWatts/m^2,SoftwareType,DateUTC
2013-01-15 00:02:00,37.0,37.0,-100.00,NE,45,5.0,9.0,100,0.03,,,2.37,0.000000,,2013-01-15 06:02:00,
2013-01-15 00:33:00,37.0,37.0,-100.00,NNE,24,5.0,9.0,100,0.00,,,2.22,0.000000,,2013-01-15 06:33:00,
2013-01-15 00:43:00,37.0,37.0,-100.00,NNE,24,5.0,9.0,100,0.00,,,2.22,0.000000,,2013-01-15 06:43:00,
2013-01-15 00:53:00,37.0,37.0,-100.00,NNE,24,5.0,9.0,100,0.00,,,2.22,0.000000,,2013-01-15 06:53:00,
2013-01-15 01:02:00,37.0,37.0,-100.00,NNE,24,5.0,9.0,100,0.00,,,2.22,0.000000,,2013-01-15 07:02:00,
2013-01-15 01:33:00,38.0,38.0,-100.00,NE,44,4.0,11.0,100,0.00,,,2.19,0.000000,,2013-01-15 07:33:00,
2013-01-15 01:43:00,38.0,38.0,-100.00,NE,44,4.0,11.0,100,0.00,,,2.19,0.000000,,2013-01-15 07:43:00,
2013-01-15 01:53:00,38.0,38.0,-100.00,NE,44,4.0,11.0,100,0.00,,,2.19,0.000000,,2013-01-15 07:53:00,
2013-01-15 02:02:00,38.0,38.0,-100.00,NE,44,4.0,11.0,100,0.00,,,2.19,0.000000,,2013-01-15 08:02:00,
2013-01-15 02:33:00,38.0,38.0,-100.00,NNE,32,4.0,9.0,100,0.00,,,2.19,0.000000,,2013-01-15 08:33:00,
2013-01-15 02:43:00,38.0,38.0,-100.00,NNE,32,4.0,9.0,100,0.00,,,2.19,0.000000,,2013-01-15 08:43:00,
2013-01-15 02:53:00,38.0,38.0,-100.00,NNE,32,4.0,9.0,100,0.00,,,2.19,0.000000,,2013-01-15 08:53:00,
2013-01-15 03:02:00,38.0,38.0,-100.00,NNE,32,4.0,9.0,100,0.00,,,2.19,0.000000,,2013-01-15 09:02:00,
2013-01-15 03:33:00,38.0,38.0,-100.00,NNE,24,5.0,10.0,100,0.00,,,2.19,0.000000,,2013-01-15 09:33:00,
2013-01-15 03:42:00,38.0,38.0,-100.00,NNE,24,5.0,10.0,100,0.00,,,2.19,0.000000,,2013-01-15 09:42:00,
2013-01-15 03:52:00,38.0,38.0,-100.00,NNE,24,5.0,10.0,100,0.00,,,2.19,0.000000,,2013-01-15 09:52:00,
2013-01-15 04:02:00,38.0,38.0,-100.00,NNE,24,5.0,10.0,100,0.00,,,2.19,0.000000,,2013-01-15 10:02:00,
2013-01-15 04:33:00,38.0,38.0,-100.00,NNE,33,5.0,10.0,100,0.00,,,2.18,0.000000,,2013-01-15 10:33:00,
2013-01-15 04:42:00,38.0,38.0,-100.00,NNE,33,5.0,10.0,100,0.00,,,2.18,0.000000,,2013-01-15 10:42:00,
2013-01-15 04:52:00,38.0,38.0,-100.00,NNE,33,5.0,10.0,100,0.00,,,2.18,0.000000,,2013-01-15 10:52:00,
2013-01-15 05:02:00,38.0,38.0,-100.00,NNE,33,5.0,10.0,100,0.00,,,2.18,0.000000,,2013-01-15 11:02:00,
2013-01-15 05:33:00,38.0,38.0,-100.00,NE,46,4.0,10.0,100,0.01,,,2.12,0.000000,,2013-01-15 11:33:00,
2013-01-15 05:43:00,38.0,38.0,-100.00,NE,46,4.0,10.0,100,0.01,,,2.12,0.000000,,2013-01-15 11:43:00,
2013-01-15 05:53:00,38.0,38.0,-100.00,NE,46,4.0,10.0,100,0.01,,,2.12,0.000000,,2013-01-15 11:53:00,
2013-01-15 06:03:00,38.0,38.0,-100.00,NE,46,4.0,10.0,100,0.01,,,2.12,0.000000,,2013-01-15 12:03:00,
2013-01-15 06:33:00,39.0,39.0,-100.00,NE,41,4.0,10.0,100,0.05,,,2.00,0.000000,,2013-01-15 12:33:00,
2013-01-15 06:43:00,39.0,39.0,-100.00,NE,41,4.0,10.0,100,0.05,,,2.00,0.000000,,2013-01-15 12:43:00,
2013-01-15 06:53:00,39.0,39.0,-100.00,NE,41,4.0,10.0,100,0.05,,,2.00,0.000000,,2013-01-15 12:53:00,
2013-01-15 07:03:00,39.0,39.0,-100.00,NE,41,4.0,10.0,100,0.05,,,2.00,0.000000,,2013-01-15 13:03:00,
2013-01-15 07:33:00,39.0,39.0,-100.00,NE,34,4.0,8.0,100,0.00,,,1.37,1.000000,,2013-01-15 13:33:00,
2013-01-15 07:43:00,39.0,39.0,-100.00,NE,34,4.0,8.0,100,0.00,,,1.37,1.000000,,2013-01-15 13:43:00,
2013-01-15 07:53:00,39.0,39.0,-100.00,NE,34,4.0,8.0,100,0.00,,,1.37,1.000000,,2013-01-15 13:53:00,
2013-01-15 08:02:00,39.0,39.0,-100.00,NE,34,4.0,8.0,100,0.00,,,1.37,1.000000,,2013-01-15 14:02:00,
2013-01-15 08:33:00,40.0,40.0,-100.00,NE,44,5.0,9.0,100,0.02,,,1.28,11.000000,,2013-01-15 14:33:00,
2013-01-15 08:43:00,40.0,40.0,-100.00,NE,44,5.0,9.0,100,0.02,,,1.28,11.000000,,2013-01-15 14:43:00,
2013-01-15 08:53:00,40.0,40.0,-100.00,NE,44,5.0,9.0,100,0.02,,,1.28,11.000000,,2013-01-15 14:53:00,
2013-01-15 09:03:00,40.0,40.0,-100.00,NE,44,5.0,9.0,100,0.02,,,1.28,11.000000,,2013-01-15 15:03:00,
2013-01-15 09:33:00,40.0,40.0,-100.00,NE,55,5.0,9.0,100,0.01,,,1.28,18.000000,,2013-01-15 15:33:00,
2013-01-15 09:43:00,40.0,40.0,-100.00,NE,55,5.0,9.0,100,0.01,,,1.28,18.000000,,2013-01-15 15:43:00,
2013-01-15 09:53:00,40.0,40.0,-100.00,NE,55,5.0,9.0,100,0.01,,,1.28,18.000000,,2013-01-15 15:53:00,
2013-01-15 10:03:00,40.0,40.0,-100.00,NE,55,5.0,9.0,100,0.01,,,1.28,18.000000,,2013-01-15 16:03:00,
2013-01-15 10:33:00,41.0,41.0,-100.00,NE,37,4.0,7.0,100,0.00,,,1.28,58.000000,,2013-01-15 16:33:00,
2013-01-15 10:43:00,41.0,41.0,-100.00,NE,37,4.0,7.0,100,0.00,,,1.28,58.000000,,2013-01-15 16:43:00,
2013-01-15 10:53:00,41.0,41.0,-100.00,NE,37,4.0,7.0,100,0.00,,,1.28,58.000000,,2013-01-15 16:53:00,
2013-01-15 11:03:00,41.0,41.0,-100.00,NE,37,4.0,7.0,100,0.00,,,1.28,58.000000,,2013-01-15 17:03:00,
2013-01-15 11:33:00,42.0,42.0,-100.00,ENE,58,4.0,7.0,100,0.01,,,1.29,88.000000,,2013-01-15 17:33:00,
2013-01-15 11:43:00,42.0,42.0,-100.00,ENE,58,4.0,7.0,100,0.01,,,1.29,88.000000,,2013-01-15 17:43:00,
2013-01-15 11:53:00,42.0,42.0,-100.00,ENE,58,4.0,7.0,100,0.01,,,1.29,88.000000,,2013-01-15 17:53:00,
2013-01-15 12:03:00,42.0,42.0,-100.00,ENE,58,4.0,7.0,100,0.01,,,1.29,88.000000,,2013-01-15 18:03:00,
2013-01-15 12:34:00,43.0,43.0,-100.00,NNE,24,3.0,7.0,100,0.00,,,1.28,95.000000,,2013-01-15 18:34:00,
2013-01-15 12:43:00,43.0,43.0,-100.00,NNE,24,3.0,7.0,100,0.00,,,1.28,95.000000,,2013-01-15 18:43:00,
2013-01-15 12:53:00,43.0,43.0,-100.00,NNE,24,3.0,7.0,100,0.00,,,1.28,95.000000,,2013-01-15 18:53:00,
2013-01-15 13:03:00,43.0,43.0,-100.00,NNE,24,3.0,7.0,100,0.00,,,1.28,95.000000,,2013-01-15 19:03:00,
2013-01-15 13:33:00,44.0,44.0,-100.00,NE,45,3.0,6.0,100,0.00,,,1.27,114.000000,,2013-01-15 19:33:00,
2013-01-15 13:43:00,44.0,44.0,-100.00,NE,45,3.0,6.0,100,0.00,,,1.27,114.000000,,2013-01-15 19:43:00,
2013-01-15 13:53:00,44.0,44.0,-100.00,NE,45,3.0,6.0,100,0.00,,,1.27,114.000000,,2013-01-15 19:53:00,
2013-01-15 14:03:00,44.0,44.0,-100.00,NE,45,3.0,6.0,100,0.00,,,1.27,114.000000,,2013-01-15 20:03:00,
2013-01-15 14:33:00,45.0,45.0,-100.00,North,7,4.0,7.0,100,0.00,,,1.26,88.000000,,2013-01-15 20:33:00,
2013-01-15 14:44:00,45.0,45.0,-100.00,North,7,4.0,7.0,100,0.00,,,1.26,88.000000,,2013-01-15 20:44:00,
2013-01-15 14:53:00,45.0,45.0,-100.00,North,7,4.0,7.0,100,0.00,,,1.26,88.000000,,2013-01-15 20:53:00,
2013-01-15 15:03:00,45.0,45.0,-100.00,North,7,4.0,7.0,100,0.00,,,1.26,88.000000,,2013-01-15 21:03:00,
2013-01-15 15:34:00,44.0,44.0,-100.00,North,10,4.0,8.0,100,0.00,,,1.25,73.000000,,2013-01-15 21:34:00,
2013-01-15 15:43:00,44.0,44.0,-100.00,North,10,4.0,8.0,100,0.00,,,1.25,73.000000,,2013-01-15 21:43:00,
2013-01-15 15:53:00,44.0,44.0,-100.00,North,10,4.0,8.0,100,0.00,,,1.25,73.000000,,2013-01-15 21:53:00,
2013-01-15 16:03:00,44.0,44.0,-100.00,North,10,4.0,8.0,100,0.00,,,1.25,73.000000,,2013-01-15 22:03:00,
2013-01-15 16:33:00,43.0,43.0,-100.00,NNE,15,5.0,8.0,100,0.00,,,1.21,44.000000,,2013-01-15 22:33:00,
2013-01-15 16:43:00,43.0,43.0,-100.00,NNE,15,5.0,8.0,100,0.00,,,1.21,44.000000,,2013-01-15 22:43:00,
2013-01-15 16:53:00,43.0,43.0,-100.00,NNE,15,5.0,8.0,100,0.00,,,1.21,44.000000,,2013-01-15 22:53:00,
2013-01-15 17:02:00,43.0,43.0,-100.00,NNE,15,5.0,8.0,100,0.00,,,1.21,44.000000,,2013-01-15 23:02:00,
2013-01-15 17:33:00,42.0,42.0,-100.00,North,9,4.0,9.0,100,0.00,,,1.11,11.000000,,2013-01-15 23:33:00,
2013-01-15 17:43:00,42.0,42.0,-100.00,North,9,4.0,9.0,100,0.00,,,1.11,11.000000,,2013-01-15 23:43:00,
2013-01-15 17:53:00,42.0,42.0,-100.00,North,9,4.0,9.0,100,0.00,,,1.11,11.000000,,2013-01-15 23:53:00,
2013-01-15 18:02:00,42.0,42.0,-100.00,North,9,4.0,9.0,100,0.00,,,1.11,11.000000,,2013-01-16 00:02:00,
2013-01-15 18:33:00,41.0,41.0,-100.00,NNE,17,4.0,9.0,100,0.00,,,0.90,1.000000,,2013-01-16 00:33:00,
2013-01-15 18:43:00,41.0,41.0,-100.00,NNE,17,4.0,9.0,100,0.00,,,0.90,1.000000,,2013-01-16 00:43:00,
2013-01-15 18:53:00,41.0,41.0,-100.00,NNE,17,4.0,9.0,100,0.00,,,0.90,1.000000,,2013-01-16 00:53:00,
2013-01-15 19:03:00,41.0,41.0,-100.00,NNE,17,4.0,9.0,100,0.00,,,0.90,1.000000,,2013-01-16 01:03:00,
2013-01-15 19:33:00,41.0,41.0,-100.00,North,9,3.0,8.0,100,0.00,,,-99.99,0.000000,,2013-01-16 01:33:00,
2013-01-15 19:43:00,41.0,41.0,-100.00,North,9,3.0,8.0,100,0.00,,,-99.99,0.000000,,2013-01-16 01:43:00,
2013-01-15 19:53:00,41.0,41.0,-100.00,North,9,3.0,8.0,100,0.00,,,-99.99,0.000000,,2013-01-16 01:53:00,
2013-01-15 20:03:00,41.0,41.0,-100.00,North,9,3.0,8.0,100,0.00,,,-99.99,0.000000,,2013-01-16 02:03:00,
2013-01-15 20:33:00,41.0,41.0,-100.00,North,2,4.0,9.0,100,0.00,,,0.19,0.000000,,2013-01-16 02:33:00,
2013-01-15 20:43:00,41.0,41.0,-100.00,North,2,4.0,9.0,100,0.00,,,0.19,0.000000,,2013-01-16 02:43:00,
2013-01-15 20:53:00,41.0,41.0,-100.00,North,2,4.0,9.0,100,0.00,,,0.19,0.000000,,2013-01-16 02:53:00,
2013-01-15 21:03:00,41.0,41.0,-100.00,North,2,4.0,9.0,100,0.00,,,0.19,0.000000,,2013-01-16 03:03:00,
2013-01-15 21:33:00,41.0,41.0,-100.00,North,1,4.0,8.0,100,0.00,,,0.17,0.000000,,2013-01-16 03:33:00,
2013-01-15 21:43:00,41.0,41.0,-100.00,North,1,4.0,8.0,100,0.00,,,0.17,0.000000,,2013-01-16 03:43:00,
2013-01-15 21:53:00,41.0,41.0,-100.00,North,1,4.0,8.0,100,0.00,,,0.17,0.000000,,2013-01-16 03:53:00,
2013-01-15 22:02:00,41.0,41.0,-100.00,North,1,4.0,8.0,100,0.00,,,0.17,0.000000,,2013-01-16 04:02:00,
2013-01-15 22:33:00,40.0,40.0,-100.00,North,358,4.0,10.0,100,0.01,,,0.14,0.000000,,2013-01-16 04:33:00,
2013-01-15 22:42:00,40.0,40.0,-100.00,North,358,4.0,10.0,100,0.01,,,0.14,0.000000,,2013-01-16 04:42:00,
2013-01-15 22:52:00,40.0,40.0,-100.00,North,358,4.0,10.0,100,0.01,,,0.14,0.000000,,2013-01-16 04:52:00,
2013-01-15 23:03:00,40.0,40.0,-100.00,North,358,4.0,10.0,100,0.01,,,0.14,0.000000,,2013-01-16 05:03:00,
2013-01-15 23:33:00,39.0,39.0,-100.00,NNE,28,3.0,11.0,100,0.00,,,0.11,0.000000,,2013-01-16 05:33:00,
2013-01-15 23:42:00,39.0,39.0,-100.00,NNE,28,3.0,11.0,100,0.00,,,0.11,0.000000,,2013-01-16 05:42:00,
2013-01-15 23:53:00,39.0,39.0,-100.00,NNE,28,3.0,11.0,100,0.00,,,0.11,0.000000,,2013-01-16 05:53:00,